Dewpoint
50 46 47 37 27 29 26 24 23 44 44 46 45 52 55 56 55 53 63 64 67 68 70 71 71 72 72 72 72 72 72 72 73 73 72 72 71 71 71 71 71 71 71 71 70 70 70 70 70
45 35 38 30 25 24 24 25 31 42 46 45 47 55 56 55 59 61 62 63 67 68 68 69 70 71 71 71 71 71 71 72 72 71 71 70 70 69 69 69 69 68 69 69 69 68 67 67 67
45 36 25 22 23 22 23 23 32 41 41 41 49 54 55 57 60 60 61 64 67 67 67 68 69 69 70 70 70 70 70 70 70 70 69 69 69 68 67 66 66 66 66 65 65 65 64 63 64
34 29 26 18 16 18 21 20 22 33 41 42 52 53 57 59 60 61 61 65 64 65 66 67 68 68 69 69 69 68 68 68 68 67 68 67 66 65 64 63 63 62 62 62 61 60 60 60 60
33 27 18 21 18 19 19 19 21 20 21 42 51 53 56 58 59 59 62 63 63 63 64 65 66 67 67 67 67 66 66 65 65 65 65 64 63 61 60 59 58 58 57 57 56 55 55 55 55
26 24 19 17 15 15 16 21 23 26 24 46 52 53 55 58 58 60 61 60 61 61 62 62 64 64 64 64 64 63 63 63 62 62 61 60 59 58 56 56 55 54 54 53 53 53 52 53 53
25 24 20 17 15 14 18 25 22 29 40 41 52 52 55 55 58 60 60 59 59 60 59 59 60 60 61 61 60 60 60 59 58 57 56 56 56 55 54 52 52 51 51 51 51 51 52 53 54
22 24 21 17 14 14 20 20 29 29 42 47 50 52 54 54 55 58 60 59 58 57 58 57 57 57 56 58 58 57 56 55 55 54 55 56 55 53 51 50 49 49 50 48 49 51 53 55 57
21 20 18 17 16 16 15 15 27 33 36 51 53 52 54 53 55 55 56 58 58 57 56 57 56 56 56 56 55 55 55 54 53 52 52 55 51 48 48 49 47 47 53 49 53 55 55 54 52
20 21 20 20 17 14 17 15 17 27 29 51 51 52 51 51 53 53 54 53 54 55 55 57 56 55 53 51 53 52 53 53 51 50 50 50 47 48 48 48 47 47 51 51 52 52 51 49 45
13 18 21 20 17 15 13 13 14 13 13 49 51 51 50 50 51 52 52 52 51 52 54 54 56 55 51 51 53 52 50 50 49 48 49 48 48 48 47 46 46 44 48 45 46 45 45 44 45
19 16 16 16 13 14 13 15 14 14 28 48 51 51 51 50 50 50 50 50 50 50 50 51 53 54 54 51 50 48 48 49 47 46 47 48 47 46 45 45 43 43 44 43 44 43 43 43 43
20 19 19 16 14 11 13 15 14 15 29 51 51 51 51 51 52 51 50 49 48 47 49 49 50 49 48 47 47 46 46 46 46 45 45 47 45 45 45 43 43 43 42 43 42 42 42 42 43
23 22 20 18 17 17 14 11 15 15 24 50 50 49 50 51 51 51 48 46 46 47 48 49 49 48 47 46 46 45 46 45 45 44 44 45 44 44 43 43 42 42 42 42 42 41 41 41 42
24 22 21 20 19 17 15 11 6 12 24 33 47 47 49 50 50 47 46 45 45 45 47 48 48 47 46 46 45 45 45 45 44 44 43 43 43 43 42 42 42 43 42 41 41 41 41 41 41
23 24 21 21 19 18 15 12 11 18 14 29 31 38 45 47 47 46 45 44 43 44 46 46 47 46 45 43 43 43 43 44 44 43 43 42 42 42 42 41 41 43 41 40 40 40 40 41 40
24 21 20 18 17 11 9 10 11 19 21 22 30 32 42 45 45 45 43 42 42 44 44 45 45 45 44 43 43 43 41 41 41 41 41 40 40 41 40 40 39 40 40 40 39 39 39 39 37
21 19 18 16 16 16 15 12 13 18 20 21 27 35 42 44 43 43 42 41 43 43 44 45 45 43 43 42 42 42 40 39 39 38 38 38 39 38 39 39 38 39 38 38 38 38 37 38 38
21 19 17 17 18 16 16 15 16 16 19 21 28 35 40 44 43 43 41 41 42 42 43 43 43 44 43 42 40 38 37 36 36 36 37 37 37 37 38 38 37 38 37 37 37 37 36 36 36
19 18 17 17 17 16 14 12 13 14 16 17 23 33 39 44 43 43 41 40 41 42 42 43 43 43 41 40 39 39 37 36 35 34 34 35 36 36 36 36 36 36 36 36 35 35 34 36 36
16 16 15 15 14 13 12 11 13 14 14 15 17 31 38 43 42 41 40 40 41 41 42 42 42 42 41 38 36 35 35 35 34 31 31 32 34 36 35 35 35 36 36 35 34 34 33 33 34
11 13 13 12 16 14 13 10 11 13 13 13 14 19 37 42 42 40 40 40 40 41 41 42 41 39 37 35 34 32 32 33 33 30 30 31 32 33 34 34 34 35 35 34 34 34 33 33 32
15 20 16 17 15 15 14 11 10 13 13 13 22 30 39 42 42 40 39 40 41 41 40 39 38 37 36 36 35 35 32 30 31 31 30 30 31 31 33 32 32 32 33 33 33 33 33 32 32
16 17 16 17 15 13 13 13 11 14 16 25 28 40 41 41 41 40 43 41 40 38 37 37 36 34 32 32 33 32 29 29 30 30 30 31 31 31 31 31 31 31 31 31 32 33 33 32 31
15 16 15 15 15 12 13 11 13 19 25 27 27 38 41 41 41 40 40 39 38 38 37 34 32 32 32 31 31 31 29 29 29 29 29 30 30 29 29 29 29 29 29 31 31 31 32 31 31
15 14 16 12 13 12 13 11 19 27 29 29 31 32 39 40 40 40 40 39 38 37 36 34 32 32 31 31 32 31 31 31 31 29 30 30 29 29 29 29 29 29 30 30 31 30 31 30 30
16 16 16 15 16 15 16 18 18 25 31 33 30 31 34 37 39 39 39 38 38 37 36 35 32 30 30 31 31 30 30 29 30 28 28 28 28 28 28 28 28 29 29 29 29 29 29 29 29
18 18 16 20 12 10 16 17 20 30 33 32 29 36 35 36 38 39 39 38 38 38 38 35 31 31 30 30 30 29 30 29 29 27 27 27 27 28 28 28 28 28 28 28 28 27 27 27 27
18 19 23 23 24 17 15 18 31 33 36 36 36 34 38 38 40 39 39 38 38 40 38 36 32 32 31 30 29 30 30 30 29 28 27 27 27 27 27 28 28 29 27 27 27 27 26 25 25
17 16 18 25 27 30 29 26 31 33 35 34 32 32 34 41 40 41 40 39 39 38 38 36 31 30 32 32 31 31 32 31 29 29 28 28 27 28 28 27 27 27 27 27 26 26 26 24 23
Lifted_Index
9 8 7 6 5 3 2 1 1 -1 -3 -2 -2 -3 -3 -3 -3 -3 -3 -3 -3 -3 -3 -4 -4 -4 -5 -5 -5 -5 -6 -6 -6 -6 -6 -5 -5 -5 -5 -4 -4 -4 -4 -4 -4 -4 -4 -4 -4
8 8 7 6 4 3 1 1 0 -2 -3 -2 -3 -3 -3 -3 -3 -3 -3 -3 -3 -3 -3 -3 -4 -4 -4 -4 -5 -5 -5 -5 -5 -5 -5 -4 -4 -4 -4 -4 -4 -4 -3 -3 -3 -3 -3 -3 -3
8 7 6 5 3 2 1 1 -0 -2 -2 -2 -3 -3 -3 -3 -3 -3 -3 -3 -3 -3 -2 -2 -3 -3 -3 -4 -4 -4 -4 -4 -4 -4 -4 -3 -3 -3 -3 -3 -3 -3 -3 -3 -2 -2 -2 -2 -2
7 7 6 4 3 2 2 1 0 -1 -1 -1 -2 -3 -3 -3 -2 -2 -2 -2 -2 -2 -2 -2 -2 -3 -3 -3 -3 -3 -3 -3 -3 -3 -3 -3 -3 -3 -3 -3 -2 -2 -2 -1 -1 0 1 2 2
6 6 5 3 3 3 2 1 0 1 0 -1 -2 -3 -2 -2 -2 -2 -2 -2 -2 -2 -1 -2 -2 -2 -3 -3 -3 -3 -3 -3 -2 -2 -2 -2 -2 -2 -2 -1 -0 1 1 2 3 5 6 6 6
6 6 5 3 3 3 2 1 0 1 -0 -2 -3 -2 -2 -1 -1 -1 -1 -1 -2 -2 -2 -2 -2 -2 -2 -3 -2 -2 -2 -2 -2 -2 -1 -1 -0 1 2 3 4 6 6 7 8 8 9 9 9
6 5 4 3 3 2 2 1 1 0 -1 -2 -2 -2 -2 -1 -1 -1 -1 -1 -2 -2 -2 -2 -2 -2 -2 -2 -2 -2 -2 -2 -1 -0 1 2 4 5 7 8 9 9 9 10 10 10 10 9 9
6 5 4 3 3 2 2 2 2 1 -0 -2 -2 -2 -2 -2 -1 -1 -1 -2 -2 -3 -3 -3 -2 -2 -2 -2 -2 -2 -1 -0 1 3 5 6 7 8 10 10 11 10 10 10 10 10 10 9 9
6 5 4 3 3 3 2 2 3 2 1 -1 -2 -2 -2 -2 -1 -1 -2 -2 -3 -3 -3 -3 -3 -3 -2 -2 -1 -1 1 3 5 7 8 8 9 9 10 11 11 11 10 10 10 10 10 10 10
6 6 4 4 4 4 3 3 3 3 1 -0 -1 -1 -2 -1 -1 -1 -2 -2 -3 -3 -3 -3 -3 -2 -1 -0 1 2 4 6 8 9 9 9 9 10 10 11 11 11 11 10 10 11 11 11 11
6 6 5 5 4 4 4 4 3 3 2 0 -1 -1 -1 -1 -1 -1 -2 -2 -2 -2 -2 -2 -1 -0 1 2 4 6 7 9 10 10 10 10 10 10 11 11 12 12 12 12 12 12 12 12 12
6 6 5 5 5 5 5 4 3 3 2 0 -1 -1 -0 -0 -0 -1 -1 -1 -2 -2 -2 -1 1 2 3 5 7 8 9 10 11 11 11 10 10 11 11 12 12 12 13 13 13 13 13 12 12
6 6 5 5 5 5 5 5 4 3 2 -0 -1 -0 0 0 0 -0 -0 -0 -1 -1 -1 0 3 4 5 7 8 9 9 10 11 11 11 11 11 11 12 12 12 13 13 13 13 13 13 13 12
6 6 5 5 5 5 5 5 5 4 2 -0 -1 -1 -0 0 0 0 0 0 0 -1 -0 1 4 6 7 8 8 9 10 11 11 12 12 12 12 12 12 12 13 13 13 13 13 13 13 13 13
7 6 5 4 4 4 4 5 5 4 3 1 -0 -1 -1 -0 -0 -0 -0 -0 0 1 1 3 5 7 8 8 9 10 11 11 11 12 12 12 12 12 12 13 13 13 13 13 14 13 13 13 13
6 6 5 4 4 4 4 4 5 5 4 2 1 0 -0 -1 -1 -1 -0 -0 0 1 2 4 6 8 8 9 10 11 11 11 11 12 13 13 12 12 13 13 13 13 13 13 14 13 13 13 13
5 5 4 4 4 4 4 4 4 5 4 3 2 1 0 -0 -1 -1 -0 0 1 2 3 5 7 8 9 10 10 11 11 11 11 12 13 13 13 13 13 13 13 13 13 13 13 13 13 13 13
4 4 4 4 3 3 4 4 4 4 4 3 3 2 1 -0 -1 -1 -0 1 2 3 4 6 8 9 10 10 10 11 11 11 12 13 14 14 14 14 13 13 13 13 12 12 13 13 13 13 13
3 3 4 3 3 3 3 3 3 3 3 3 2 2 1 1 0 -0 0 1 2 4 4 6 8 9 10 10 10 10 10 11 12 13 14 14 14 14 13 13 13 12 12 12 12 13 13 13 13
3 3 3 4 4 3 3 3 3 3 2 2 2 1 1 1 1 1 1 1 2 3 4 5 7 9 9 10 10 10 10 11 12 13 14 14 14 14 13 13 12 12 12 12 12 13 12 12 13
4 4 4 4 4 4 3 3 3 3 3 3 2 2 1 1 1 1 1 1 2 3 4 5 7 8 8 8 9 9 10 10 11 12 13 13 14 14 13 13 13 13 13 12 13 13 13 12 12
4 4 4 5 5 4 4 3 3 4 4 3 2 1 1 0 1 1 1 0 1 3 4 4 6 7 7 7 8 9 9 9 10 11 12 13 13 13 13 13 13 13 13 13 13 13 13 13 12
5 5 5 5 5 4 4 3 3 4 3 2 2 1 -0 -1 -0 -0 -0 -0 1 2 3 5 6 7 7 7 8 9 9 9 9 10 11 12 13 13 13 13 13 13 13 14 14 14 13 13 13
5 5 5 4 4 4 4 3 3 3 2 2 1 -0 -1 -2 -1 -1 -1 -0 1 3 4 5 6 6 7 8 9 9 9 9 9 10 10 11 11 12 13 13 13 13 14 14 14 14 14 13 13
4 4 3 3 2 3 3 4 3 3 2 1 0 -1 -1 -2 -1 -1 -1 0 1 3 4 5 5 6 7 9 9 10 10 9 9 9 9 9 10 11 12 13 13 13 14 14 14 14 14 13 13
3 3 2 1 1 2 3 3 3 2 1 1 1 0 -1 -1 -1 -0 0 1 2 2 3 4 5 6 7 9 9 10 10 10 10 10 10 10 10 11 12 13 13 14 14 14 14 14 14 14 14
3 2 1 0 0 1 2 2 2 1 0 1 1 1 1 0 0 0 0 1 1 2 3 4 4 5 7 8 9 9 10 10 10 10 10 10 11 11 12 13 14 14 14 14 14 14 14 14 14
3 2 1 0 0 0 1 1 1 0 -0 0 1 1 1 1 1 1 1 1 1 1 2 3 4 5 6 7 8 8 9 10 10 10 10 11 11 12 13 13 14 14 14 14 14 14 14 14 14
3 2 1 -0 -0 0 0 0 0 -0 -0 -0 0 1 1 1 1 1 1 1 1 1 2 3 4 5 5 6 7 8 8 9 10 10 10 11 12 13 13 13 14 14 14 14 14 14 14 14 14
2 2 1 -0 -0 0 0 0 0 -0 -0 -0 0 0 1 1 1 0 1 1 1 1 2 2 3 4 5 6 7 7 8 9 9 10 10 11 12 13 13 14 14 14 14 14 14 14 15 15 14